Date String (YYYY-MM-DD hh:mm:ss) UTC,Instrument flags,Ambient pressure (hPa),Sample flow (lpm),Bypass flow (lpm),Sample temperature (°C),Ambient temperature (°C),ASC tube jacket temperature (°C),LED temperature (°C),Box temperature (°C),Sample RH (%),Span deviation,Mass concentration (μg/m³),Mass concentration (μg/m³),Mass concentration (μg/m³)
DateTimeUTC,F1_M11,P_M11,Q1_M11,Q2_M11,T1_M11,T2_M11,T3_M11,T4_M11,T5_M11,U1_M11,ZSPAN_M11,X2_M11,X0_M11,X1_M11
2022-06-01 20:00:00,,0831.0,4.99,0.00,26.8,25.9,00.0,35.6,28.7,21.6,0000.0,0002.17,0002.59,0002.03
2022-06-01 20:01:00,,0831.0,5.00,0.00,26.8,25.9,00.0,35.6,28.8,21.9,0000.0,0002.10,0002.52,0001.96
2022-06-01 20:02:00,,0831.0,5.01,0.00,26.8,25.9,00.0,35.6,28.8,21.6,0000.0,0002.06,0002.47,0001.90
2022-06-01 20:03:00,,0831.0,4.99,0.00,26.8,26.0,00.0,35.6,28.8,21.3,0000.0,0002.02,0002.35,0001.87
2022-06-01 20:04:00,,0831.0,5.00,0.00,26.8,26.0,00.0,35.6,28.8,21.3,0000.0,0002.00,0002.31,0001.83
2022-06-01 20:05:00,,0831.0,5.01,0.00,26.8,26.0,00.0,35.7,28.8,21.8,0000.0,0001.96,0002.24,0001.80
2022-06-01 20:06:00,,0831.0,5.00,0.00,26.8,26.0,00.0,35.7,28.8,21.7,0000.0,0001.92,0002.18,0001.77
2022-06-01 20:07:00,,0830.9,5.00,0.00,26.9,26.0,00.0,35.7,28.8,21.9,0000.0,0001.90,0002.17,0001.74
2022-06-01 20:08:00,,0831.0,4.99,0.00,26.9,26.0,00.0,35.7,28.8,21.4,0000.0,0001.89,0002.15,0001.73
2022-06-01 20:09:00,,0830.9,4.99,0.00,26.9,26.0,00.0,35.7,28.8,21.4,0000.0,0001.91,0002.17,0001.75
2022-06-01 20:10:00,,0830.9,5.01,0.00,26.9,26.0,00.0,35.7,28.9,21.8,0000.0,0001.91,0002.16,0001.77
2022-06-01 20:11:00,,0830.9,5.01,0.00,26.9,26.0,00.0,35.7,28.9,21.3,0000.0,0001.93,0002.21,0001.78
2022-06-01 20:12:00,,0830.9,4.99,0.00,26.9,26.1,00.0,35.7,28.9,21.0,0000.0,0001.94,0002.24,0001.79
2022-06-01 20:13:00,,0830.9,5.00,0.00,26.9,26.1,00.0,35.8,28.9,21.5,0000.0,0001.95,0002.27,0001.80
2022-06-01 20:14:00,,0831.0,5.00,0.00,26.9,26.1,00.0,35.8,28.9,21.7,0000.0,0001.98,0002.31,0001.81
2022-06-01 20:15:00,,0830.9,5.01,0.00,26.9,26.1,00.0,35.8,28.9,21.5,0000.0,0002.00,0002.32,0001.84
2022-06-01 20:16:00,,0830.9,5.00,0.00,27.0,26.1,00.0,35.8,28.9,21.7,0000.0,0002.03,0002.37,0001.86
2022-06-01 20:17:00,,0830.9,4.99,0.00,27.0,26.1,00.0,35.8,28.9,21.8,0000.0,0002.04,0002.37,0001.88
2022-06-01 20:18:00,,0830.9,5.01,0.00,27.0,26.1,00.0,35.8,28.9,22.1,0000.0,0002.08,0002.42,0001.92
2022-06-01 20:19:00,,0830.8,5.01,0.00,27.0,26.1,00.0,35.8,29.0,21.9,0000.0,0002.10,0002.45,0001.94
2022-06-01 20:20:00,,0830.8,4.99,0.00,27.0,26.2,00.0,35.8,29.0,21.5,0000.0,0002.10,0002.44,0001.93
2022-06-01 20:21:00,,0830.8,5.01,0.00,27.0,26.2,00.0,35.8,29.0,21.7,0000.0,0002.10,0002.90,0001.93
2022-06-01 20:22:00,,0830.7,5.01,0.00,27.0,26.2,00.0,35.8,29.0,21.2,0000.0,0002.13,0003.48,0001.97
2022-06-01 20:23:00,,0830.7,5.00,0.00,27.0,26.2,00.0,35.9,29.0,21.4,0000.0,0002.20,0003.67,0002.01
2022-06-01 20:24:00,,0830.7,5.00,0.00,27.1,26.2,00.0,35.9,29.0,21.8,0000.0,0002.22,0003.71,0002.02
2022-06-01 20:25:00,,0830.7,4.99,0.00,27.1,26.2,00.0,35.9,29.0,21.7,0000.0,0002.24,0003.75,0002.04
2022-06-01 20:26:00,,0830.7,5.01,0.00,27.1,26.2,00.0,35.9,29.0,21.6,0000.0,0002.29,0003.86,0002.07
2022-06-01 20:27:00,,0830.7,4.99,0.00,27.1,26.3,00.0,35.9,29.1,21.2,0000.0,0002.36,0003.99,0002.11
2022-06-01 20:28:00,,0830.7,5.00,0.00,27.1,26.3,00.0,35.9,29.1,21.3,0000.0,0002.44,0004.13,0002.15
2022-06-01 20:29:00,,0830.7,5.00,0.00,27.1,26.3,00.0,35.9,29.1,20.9,0000.0,0002.47,0004.23,0002.18
2022-06-01 20:30:00,,0830.7,5.00,0.00,27.1,26.3,00.0,35.9,29.1,21.2,0000.0,0002.51,0004.29,0002.21
2022-06-01 20:31:00,,0830.6,5.00,0.00,27.1,26.3,00.0,36.0,29.1,21.0,0000.0,0002.53,0004.32,0002.23
2022-06-01 20:32:00,,0830.5,5.01,0.00,27.1,26.3,00.0,36.0,29.1,21.0,0000.0,0002.57,0004.02,0002.27
2022-06-01 20:33:00,,0830.6,4.98,0.00,27.2,26.3,00.0,36.0,29.1,21.3,0000.0,0002.61,0003.35,0002.30
2022-06-01 20:34:00,,0830.6,5.01,0.00,27.2,26.3,00.0,36.0,29.1,21.5,0000.0,0002.62,0003.29,0002.31
2022-06-01 20:35:00,,0830.5,5.00,0.00,27.2,26.3,00.0,36.0,29.2,21.5,0000.0,0002.66,0003.48,0002.35
2022-06-01 20:36:00,,0830.5,4.99,0.00,27.2,26.4,00.0,36.0,29.2,21.2,0000.0,0002.68,0004.54,0002.39
2022-06-01 20:37:00,,0830.5,5.01,0.00,27.2,26.4,00.0,36.0,29.2,21.1,0000.0,0002.67,0004.58,0002.40
2022-06-01 20:38:00,,0830.6,5.01,0.00,27.2,26.4,00.0,36.0,29.2,21.5,0000.0,0002.63,0004.49,0002.41
2022-06-01 20:39:00,,0830.5,5.00,0.00,27.2,26.4,00.0,36.1,29.2,20.5,0000.0,0002.64,0004.45,0002.45
2022-06-01 20:40:00,,0830.6,5.00,0.00,27.3,26.4,00.0,36.1,29.2,20.2,0000.0,0002.70,0004.56,0002.52
2022-06-01 20:41:00,,0830.5,5.00,0.00,27.3,26.4,00.0,36.1,29.2,20.5,0000.0,0002.75,0005.03,0002.56
2022-06-01 20:42:00,,0830.4,5.00,0.00,27.3,26.4,00.0,36.1,29.2,20.3,0000.0,0002.83,0005.24,0002.62
2022-06-01 20:43:00,,0830.4,4.99,0.00,27.3,26.5,00.0,36.1,29.3,20.3,0000.0,0002.89,0005.98,0002.68
2022-06-01 20:44:00,,0830.5,4.99,0.00,27.3,26.5,00.0,36.1,29.3,20.6,0000.0,0002.90,0006.33,0002.70
2022-06-01 20:45:00,,0830.4,5.01,0.00,27.3,26.5,00.0,36.1,29.3,21.4,0000.0,0002.90,0006.32,0002.70
2022-06-01 20:46:00,,0830.5,5.00,0.00,27.3,26.5,00.0,36.1,29.3,21.0,0000.0,0002.90,0006.16,0002.69
2022-06-01 20:47:00,,0830.5,4.99,0.00,27.3,26.5,00.0,36.2,29.3,20.4,0000.0,0002.93,0005.25,0002.71
2022-06-01 20:48:00,,0830.4,5.00,0.00,27.4,26.5,00.0,36.2,29.3,20.9,0000.0,0002.99,0005.29,0002.73
2022-06-01 20:49:00,,0830.4,5.02,0.00,27.4,26.5,00.0,36.2,29.3,20.5,0000.0,0003.06,0005.39,0002.79
2022-06-01 20:50:00,,0830.6,5.00,0.00,27.4,26.5,00.0,36.2,29.3,20.2,0000.0,0003.11,0005.46,0002.82
2022-06-01 20:51:00,,0830.7,5.00,0.00,27.4,26.5,00.0,36.2,29.3,20.6,0000.0,0003.07,0005.25,0002.78
2022-06-01 20:52:00,,0830.5,5.00,0.00,27.4,26.6,00.0,36.2,29.4,20.5,0000.0,0003.04,0005.00,0002.77
2022-06-01 20:53:00,,0830.5,5.00,0.00,27.4,26.6,00.0,36.2,29.4,20.5,0000.0,0003.01,0005.32,0002.75
2022-06-01 20:54:00,,0830.3,5.00,0.00,27.4,26.6,00.0,36.2,29.4,20.5,0000.0,0002.97,0004.73,0002.72
2022-06-01 20:55:00,,0830.3,4.99,0.00,27.4,26.6,00.0,36.2,29.4,20.6,0000.0,0003.02,0004.92,0002.73
2022-06-01 20:56:00,,0830.3,4.99,0.00,27.5,26.6,00.0,36.3,29.4,20.8,0000.0,0003.03,0004.90,0002.75
2022-06-01 20:57:00,,0830.4,5.01,0.00,27.5,26.6,00.0,36.3,29.4,20.8,0000.0,0003.08,0004.99,0002.78
2022-06-01 20:58:00,,0830.3,5.01,0.00,27.5,26.6,00.0,36.3,29.4,21.0,0000.0,0003.07,0004.88,0002.77
2022-06-01 20:59:00,,0830.3,4.99,0.00,27.5,26.7,00.0,36.3,29.5,21.7,0000.0,0003.01,0004.73,0002.75
